This demonstration page uses our WeatherBlox Daily Observations layout. Learn more.

Left ArrowRight Arrow

36.17497, -115.13722

Hourly Observations for April 22, 2017

Temp ( °F °C ) Dew Point ( °F °C ) Humidity (%) Winds ( mph kmh ) Pressure ( in mb ) Visibility ( mi km ) Precip ( " mm )
12:53 am 00:53 Clear 65 18.3 21 -6.1 19 19 ESE 5 7 30.02 1017 10 16.0934 N/A
1:53 am 01:53 Clear 65 18.3 22 -5.6 19 19 S 6 9 30.01 1016 10 16.0934 N/A
2:53 am 02:53 Clear 64 17.8 23 -5 21 21 SSW 6 9 30.01 1016 10 16.0934 N/A
3:53 am 03:53 Clear 62 16.7 23 -5 22 22 SSW 6 9 30.03 1017 10 16.0934 N/A
4:53 am 04:53 Clear 61 16.1 22 -5.6 22 22 W 3 6 30.03 1017 10 16.0934 N/A
5:53 am 05:53 Clear 59 15 24 -4.4 26 26 WSW 8 13 30.04 1017 10 16.0934 N/A
6:53 am 06:53 Sunny 61 16.1 23 -5 23 23 WSW 6 9 30.07 1018 10 16.0934 N/A
7:53 am 07:53 Sunny 64 17.8 22 -5.6 20 20 W 5 7 30.08 1019 10 16.0934 N/A
8:53 am 08:53 Sunny 66 18.9 21 -6.1 18 18 N N/A 30.08 1019 10 16.0934 N/A
9:53 am 09:53 Sunny 69 20.6 22 -5.6 17 17 SSE 6 9 30.07 1018 10 16.0934 N/A
10:53 am 10:53 Sunny 72 22.2 20 -6.7 14 14 N N/A 30.06 1018 10 16.0934 N/A
11:53 am 11:53 Sunny 75 23.9 20 -6.7 12 12 E 8 13 30.04 1017 10 16.0934 N/A
12:53 pm 12:53 Sunny 77 25 19 -7.2 11 11 SE 9 15 30 1016 10 16.0934 N/A
1:53 pm 13:53 Sunny 78 25.6 19 -7.2 11 11 N N/A 29.98 1015 10 16.0934 N/A
2:53 pm 14:53 Sunny 80 26.7 19 -7.2 10 10 SE 10 17 29.95 1014 10 16.0934 N/A
3:53 pm 15:53 Sunny 81 27.2 19 -7.2 10 10 SE 9 15 29.91 1013 10 16.0934 N/A
4:53 pm 16:53 Sunny 82 27.8 19 -7.2 9 9 VRB 7 11 29.89 1012 10 16.0934 N/A
5:53 pm 17:53 Sunny 81 27.2 19 -7.2 10 10 SE 5 7 29.88 1012 10 16.0934 N/A
6:53 pm 18:53 Sunny 80 26.7 20 -6.7 10 10 E 3 6 29.86 1011 10 16.0934 N/A
7:53 pm 19:53 Clear 79 26.1 22 -5.6 12 12 N N/A 29.86 1011 10 16.0934 N/A
8:53 pm 20:53 Clear 77 25 22 -5.6 13 13 SE 5 7 29.87 1012 10 16.0934 N/A
9:53 pm 21:53 Clear 74 23.3 27 -2.8 17 17 WNW 6 9 29.88 1012 10 16.0934 N/A
10:53 pm 22:53 Clear 72 22.2 27 -2.8 19 19 W 5 7 29.85 1011 10 16.0934 N/A
11:53 pm 23:53 Clear 72 22.2 27 -2.8 19 19 W 3 6 29.84 1010 10 16.0934 N/A

Powered by AerisWeather